Freeport, Bahamas

4:22 AM EST on December 18, 2017 (GMT -0500)
Grand Bahama International

Weather History for MYGF - September, 2012

Change the Weather History Date:

Wednesday, September 19, 2012

  Actual Average Record
Temperature  
Mean Temperature 80 °F -  
Max Temperature 87 °F 83 °F 91 °F (2003)
Min Temperature 72 °F 73 °F 71 °F (2014)
Cooling Degree Days 14    
Growing Degree Days 30 (Base 50)    
Moisture  
Dew Point 77 °F    
Average Humidity 80    
Maximum Humidity 89    
Minimum Humidity 70    
Precipitation  
Precipitation 0.00 in - - ()
Sea Level Pressure  
Sea Level Pressure 30.03 in    
Wind  
Wind Speed 3 mph ()    
Max Wind Speed 10 mph    
Max Gust Speed -    
Visibility 6.8 miles    
Events Rain , Thunderstorm    
Averages and records for this station are not official NWS values.
T = Trace of Precipitation, MM = Missing Value Source: Averaged Metar Reports

Daily Weather History Graph

Daily Weather History Graph

Search for Another Location

Airport or City:

Trip Planner

Search our weather history database for the weather conditions in past years. The results will help you decide how hot, cold, wet, or windy it might be!

Date:

Astronomy

Sep. 19, 2012 Rise Set
Actual Time 7:02 AM EDT 7:14 PM EDT
Civil Twilight 6:39 AM EDT 7:37 PM EDT
Nautical Twilight 6:12 AM EDT 8:04 PM EDT
Astronomical Twilight 5:44 AM EDT 8:31 PM EDT
Moon 10:41 AM EDT (9/19) 9:52 PM EDT (9/19)
Length of Visible Light 12h 58m
Length of Day
12h 11m
Waxing Crescent, 17% of the Moon is Illuminated
Sep 19
Waxing Crescent
Sep 22
First Quarter
Sep 29
Full
Oct 8
Last Quarter
Oct 15
New

Hourly Weather History & Observations

Time (EDT) Temp. Heat Index Dew Point Humidity Pressure Visibility Wind Dir Wind Speed Gust Speed Precip Events Conditions
7:00 AM 80.6 °F 86.2 °F 75.2 °F 84% 29.99 in 6.2 mi WSW 3.5 mph - N/A   Mostly Cloudy
8:00 AM 81 °F - 77 °F 84% 30.00 in 12 mi Calm Calm - - Rain Light Rain Showers
8:00 AM 80.6 °F 87.1 °F 77.0 °F 89% 30.00 in 6.2 mi Calm Calm - N/A   Mostly Cloudy
8:38 AM 80.6 °F 86.2 °F 75.2 °F 84% 30.04 in 6.2 mi Calm Calm - N/A   Partly Cloudy
9:00 AM 82.4 °F 89.5 °F 75.2 °F 79% 30.01 in 6.2 mi WSW 3.5 mph - N/A   Mostly Cloudy
10:00 AM 84.2 °F 94.1 °F 77.0 °F 79% 30.02 in 6.2 mi WSW 6.9 mph - N/A   Mostly Cloudy
11:00 AM 87 °F - 78 °F 70% 30.03 in 9 mi West 3.5 mph - -   Haze
11:00 AM 86.0 °F 99.3 °F 78.8 °F 79% 30.03 in 6.2 mi West 3.5 mph - N/A   Mostly Cloudy
12:00 PM 87.8 °F 102.5 °F 78.8 °F 75% 30.04 in 6.2 mi WSW 6.9 mph - N/A   Mostly Cloudy
1:00 PM 87.8 °F 102.5 °F 78.8 °F 75% 30.03 in 6.2 mi SW 5.8 mph - N/A   Scattered Clouds
2:00 PM 86 °F - 79 °F 74% 30.02 in 9 mi WNW 10.4 mph - -   Mostly Cloudy
2:00 PM 86.0 °F 99.3 °F 78.8 °F 79% 30.02 in 6.2 mi WNW 10.4 mph - N/A   Scattered Clouds
3:00 PM 84.2 °F 96.1 °F 78.8 °F 84% 30.02 in 6.2 mi NNW 6.9 mph - N/A   Mostly Cloudy
4:00 PM 84.2 °F 94.1 °F 77.0 °F 79% 30.03 in 6.2 mi East 8.1 mph - N/A Rain Light Rain Showers
5:00 PM 82.4 °F 90.9 °F 77.0 °F 84% 30.02 in 6.2 mi SE 3.5 mph - N/A Thunderstorm Thunderstorm
6:00 PM 82.4 °F 90.9 °F 77.0 °F 84% 30.05 in 6.2 mi SSE 6.9 mph - N/A   Mostly Cloudy
7:00 PM 82.4 °F 89.5 °F 75.2 °F 79% 30.04 in 6.2 mi South 3.5 mph - N/A   Mostly Cloudy
9:00 PM 82.4 °F 89.5 °F 75.2 °F 79% 30.04 in 6.2 mi North - - N/A   Scattered Clouds
10:00 PM 80.6 °F 86.2 °F 75.2 °F 84% 30.06 in 6.2 mi SSE 3.5 mph - N/A   Scattered Clouds